CW8248 Weather Reports


Display with metric or nautical units.
time (UTC)temp
F
wind
direction
speed
MPH
gust
MPH
rain 1hr
in
rain 24hr
in
rain mn
in
humidity
%
barometer
mb
20201204010555 35 38 0.0 0.0 0.00 0.00 0.00 87 1032.9
20201204010154 35 40 0.0 0.0 0.00 0.00 0.00 86 1032.8
20201204005551 35 30 0.0 4.0 0.00 0.00 0.00 86 1032.9
20201204005050 36 31 0.0 4.0 0.00 0.00 0.00 86 1032.9
20201204004622 36 33 0.0 0.0 0.00 0.00 0.00 85 1032.7
20201204004050 36 36 0.0 1.0 0.00 0.00 0.00 85 1032.5
20201204003559 36 38 0.0 1.0 0.00 0.00 0.00 85 1032.6
20201204003216 36 38 0.0 0.0 0.00 0.00 0.00 85 1032.6
20201204002555 37 41 0.0 0.0 0.00 0.00 0.00 84 1032.5
20201204002110 37 132 0.0 0.0 0.00 0.00 0.00 84 1032.5
20201204001714 37 152 0.0 0.0 0.00 0.00 0.00 84 1032.4
20201204001101 37 152 0.0 0.0 0.00 0.00 0.00 84 1032.5
20201204000552 37 152 0.0 0.0 0.00 0.00 0.00 84 1032.4
20201204000148 37 152 0.0 0.0 0.00 0.00 0.00 85 1032.4
20201203235601 37 152 0.0 0.0 0.00 0.00 0.00 85 1032.4
20201203235049 37 152 0.0 0.0 0.00 0.00 0.00 85 1032.4
20201203234623 37 152 0.0 0.0 0.00 0.00 0.00 85 1032.4
20201203234048 37 152 0.0 0.0 0.00 0.00 0.00 84 1032.4
20201203233617 37 152 0.0 0.0 0.00 0.00 0.00 84 1032.4
20201203233214 37 152 0.0 0.0 0.00 0.00 0.00 83 1032.4
20201203232557 37 152 0.0 0.0 0.00 0.00 0.00 83 1032.5
20201203232059 37 152 0.0 0.0 0.00 0.00 0.00 84 1032.5
20201203231629 37 152 0.0 0.0 0.00 0.00 0.00 83 1032.4
20201203231100 37 152 0.0 0.0 0.00 0.00 0.00 84 1032.4
20201203230548 37 152 0.0 0.0 0.00 0.00 0.00 83 1032.4
20201203230219 37 152 0.0 0.0 0.00 0.00 0.00 83 1032.3
20201203225550 37 152 0.0 0.0 0.00 0.00 0.00 83 1032.1
20201203225114 37 152 0.0 1.0 0.00 0.00 0.00 83 1032.2
20201203224643 37 152 0.0 2.0 0.00 0.00 0.00 83 1032.2
20201203224120 37 152 0.0 2.0 0.00 0.00 0.00 84 1032.2
20201203223547 37 152 0.0 1.0 0.00 0.00 0.00 84 1032.2
20201203223110 37 152 0.0 1.0 0.00 0.00 0.00 83 1032.0
20201203222600 37 152 0.0 1.0 0.00 0.00 0.00 83 1032.0
20201203222046 37 152 0.0 0.0 0.00 0.00 0.00 82 1032.0
20201203221803 37 152 0.0 0.0 0.00 0.00 0.00 83 1032.0
20201203221047 37 152 0.0 0.0 0.00 0.00 0.00 83 1032.0
20201203220546 37 152 0.0 0.0 0.00 0.00 0.00 82 1032.0
20201203220134 37 152 0.0 0.0 0.00 0.00 0.00 83 1032.0
20201203215556 37 152 0.0 0.0 0.00 0.00 0.00 82 1031.9
20201203215049 37 152 0.0 0.0 0.00 0.00 0.00 82 1032.0
20201203214618 37 152 0.0 1.0 0.00 0.00 0.00 81 1032.0
20201203214056 37 152 0.0 1.0 0.00 0.00 0.00 81 1032.1
20201203213552 38 152 0.0 0.0 0.00 0.00 0.00 81 1032.2
20201203213117 38 152 0.0 0.0 0.00 0.00 0.00 81 1032.3
20201203212553 38 152 0.0 2.0 0.00 0.00 0.00 80 1032.1
20201203212044 38 152 0.0 2.0 0.00 0.00 0.00 80 1032.1
20201203211613 38 152 0.0 1.0 0.00 0.00 0.00 81 1032.3
20201203211045 38 152 0.0 1.0 0.00 0.00 0.00 80 1032.2
20201203210553 38 152 0.0 0.0 0.00 0.00 0.00 80 1032.3
20201203210139 38 152 0.0 0.0 0.00 0.00 0.00 81 1032.2
20201203205545 38 152 0.0 5.0 0.00 0.00 0.00 82 1032.2
20201203205042 38 152 0.0 5.0 0.00 0.00 0.00 82 1032.2
20201203204739 38 152 0.0 2.0 0.00 0.00 0.00 81 1032.2
20201203204041 38 152 0.0 2.0 0.00 0.00 0.00 81 1032.2
20201203203553 39 152 0.0 5.0 0.00 0.00 0.00 81 1032.2
20201203203125 38 152 0.0 5.0 0.00 0.00 0.00 83 1032.3
20201203202542 38 152 0.0 5.0 0.00 0.00 0.00 85 1032.3
20201203202038 37 152 0.0 5.0 0.00 0.00 0.00 84 1032.3
20201203201644 37 152 0.0 1.0 0.00 0.00 0.00 85 1032.3
20201203201037 36 152 0.0 0.0 0.00 0.00 0.00 85 1032.4
20201203200545 36 152 0.0 3.0 0.00 0.00 0.00 85 1032.3
20201203200103 36 152 0.0 3.0 0.00 0.00 0.00 84 1032.4
20201203195539 36 152 0.0 1.0 0.00 0.00 0.00 84 1032.5
20201203195035 36 152 0.0 5.0 0.00 0.00 0.00 85 1032.5
20201203194610 36 152 0.0 5.0 0.00 0.00 0.00 86 1032.7
20201203194034 36 152 0.0 5.0 0.00 0.00 0.00 87 1032.7
20201203193538 36 151 0.0 5.0 0.00 0.00 0.00 86 1032.8
20201203193057 36 151 2.0 5.0 0.00 0.00 0.00 87 1032.8
20201203192536 36 152 0.0 0.0 0.00 0.00 0.00 87 1032.8
20201203192034 36 154 0.0 0.0 0.00 0.00 0.00 89 1032.9
20201203191546 35 150 0.0 1.0 0.00 0.00 0.00 89 1032.9
20201203191033 34 148 0.0 1.0 0.00 0.00 0.00 89 1033.0
20201203190528 34 144 0.0 0.0 0.00 0.00 0.00 88 1033.0
20201203190048 34 113 0.0 0.0 0.00 0.00 0.00 88 1033.0
20201203185537 34 113 0.0 0.0 0.00 0.00 0.00 89 1033.0
20201203185034 34 113 0.0 0.0 0.00 0.00 0.00 88 1033.0
20201203184553 33 113 0.0 0.0 0.00 0.00 0.00 89 1033.1
20201203184024 33 113 0.0 0.0 0.00 0.00 0.00 89 1033.1
20201203183535 33 113 0.0 0.0 0.00 0.00 0.00 88 1033.1
20201203183038 33 113 0.0 0.0 0.00 0.00 0.00 89 1033.2
20201203182522 33 113 0.0 0.0 0.00 0.00 0.00 90 1033.3
20201203182030 32 113 0.0 0.0 0.00 0.00 0.00 89 1033.4
20201203181556 32 31 0.0 0.0 0.00 0.00 0.00 89 1033.5
20201203181022 32 31 0.0 0.0 0.00 0.00 0.00 89 1033.4
20201203180533 32 31 0.0 0.0 0.00 0.00 0.00 90 1033.4
20201203180031 32 31 0.0 0.0 0.00 0.00 0.00 90 1033.3
20201203175521 32 31 0.0 0.0 0.00 0.00 0.00 91 1033.3
20201203175030 32 31 0.0 0.0 0.00 0.00 0.00 91 1033.3
20201203174554 31 31 0.0 0.0 0.00 0.00 0.00 91 1033.3
20201203174040 31 31 0.0 0.0 0.00 0.00 0.00 92 1033.3
20201203173530 31 31 0.0 1.0 0.00 0.00 0.00 92 1033.2
20201203173043 31 31 0.0 1.0 0.00 0.00 0.00 92 1033.2
20201203172522 31 31 0.0 0.0 0.00 0.00 0.00 92 1033.2
20201203172038 30 31 0.0 0.0 0.00 0.00 0.00 92 1033.1
20201203171601 30 31 0.0 0.0 0.00 0.00 0.00 92 1033.2
20201203171020 30 31 0.0 0.0 0.00 0.00 0.00 92 1033.1
20201203170523 30 31 0.0 0.0 0.00 0.00 0.00 92 1033.1
20201203170033 30 31 0.0 0.0 0.00 0.00 0.00 92 1033.1
20201203165525 30 31 0.0 3.0 0.00 0.00 0.00 92 1033.0
20201203165021 30 31 0.0 5.0 0.00 0.00 0.00 92 1033.0
20201203164527 29 31 0.0 5.0 0.00 0.00 0.00 92 1032.9
20201203164026 29 31 0.0 6.0 0.00 0.00 0.00 92 1032.8
20201203163519 29 24 0.0 6.0 0.00 0.00 0.00 92 1032.7
20201203163032 29 41 0.0 3.0 0.00 0.00 0.00 92 1032.6
20201203162520 29 28 0.0 3.0 0.00 0.00 0.00 92 1032.5
20201203162010 29 28 0.0 1.0 0.00 0.00 0.00 92 1032.5
20201203161521 29 11 0.0 3.0 0.00 0.00 0.00 92 1032.4
20201203161022 29 37 0.0 3.0 0.00 0.00 0.00 92 1032.5
20201203160513 28 35 0.0 6.0 0.00 0.00 0.00 92 1032.6
20201203160148 28 36 0.0 4.0 0.00 0.00 0.00 92 1032.6
20201203155609 28 36 0.0 4.0 0.00 0.00 0.00 92 1032.5
20201203155100 28 38 0.0 4.0 0.00 0.00 0.00 92 1032.5
20201203154641 28 36 0.0 4.0 0.00 0.00 0.00 92 1032.4
20201203154058 28 46 0.0 8.0 0.00 0.00 0.00 92 1032.4
20201203153557 28 27 2.0 8.0 0.00 0.00 0.00 92 1032.2
20201203153117 28 23 0.0 8.0 0.00 0.00 0.00 92 1032.2
20201203152614 28 27 1.0 8.0 0.00 0.00 0.00 92 1032.2
20201203152111 28 31 3.0 8.0 0.00 0.00 0.00 91 1032.1
20201203151630 28 16 0.0 7.0 0.00 0.00 0.00 91 1032.1
20201203151102 28 9 2.0 8.0 0.00 0.00 0.00 91 1032.1
20201203150600 28 22 3.0 9.0 0.00 0.00 0.00 91 1032.0
20201203150230 29 28 7.0 8.0 0.00 0.00 0.00 90 1031.9
20201203145550 29 14 0.0 1.0 0.00 0.00 0.00 91 1032.2
20201203145101 29 22 0.0 6.0 0.00 0.00 0.00 90 1032.2
20201203144622 29 23 4.0 6.0 0.00 0.00 0.00 91 1032.1
20201203144108 29 19 0.0 4.0 0.00 0.00 0.00 91 1032.1
20201203143555 29 12 0.0 7.0 0.00 0.00 0.00 91 1032.2
20201203143150 29 5 4.0 8.0 0.00 0.00 0.00 91 1032.1
20201203142551 29 28 6.0 8.0 0.00 0.00 0.00 90 1031.9
20201203142055 29 34 2.0 7.0 0.00 0.00 0.00 90 1031.9
20201203141628 29 32 5.0 8.0 0.00 0.00 0.00 90 1031.9
20201203141101 29 32 0.0 8.0 0.00 0.00 0.00 91 1031.8
20201203140555 29 31 1.0 7.0 0.00 0.00 0.00 91 1031.8
20201203140113 29 29 0.0 7.0 0.00 0.00 0.00 91 1031.8
20201203135548 29 21 0.0 7.0 0.00 0.00 0.00 91 1031.8
20201203135050 29 53 0.0 7.0 0.00 0.00 0.00 91 1031.8
20201203134715 29 39 0.0 7.0 0.00 0.00 0.00 91 1031.7
20201203134049 29 40 1.0 7.0 0.00 0.00 0.00 91 1031.6
20201203133546 29 24 0.0 9.0 0.00 0.00 0.00 91 1031.5
20201203133126 29 27 0.0 8.0 0.00 0.00 0.00 91 1031.4
20201203132546 29 27 0.0 8.0 0.00 0.00 0.00 91 1031.4
20201203132046 29 23 0.0 8.0 0.00 0.00 0.00 91 1031.6
20201203131627 29 29 2.0 8.0 0.00 0.00 0.00 91 1031.5
20201203131044 29 38 3.0 8.0 0.00 0.00 0.00 91 1031.6
20201203130551 29 33 0.0 9.0 0.00 0.00 0.00 91 1031.6
20201203130235 29 44 6.0 9.0 0.00 0.00 0.00 91 1031.6
20201203125545 29 45 0.0 8.0 0.00 0.00 0.00 91 1031.7
20201203125045 29 44 5.0 9.0 0.00 0.00 0.00 91 1031.8
20201203124557 29 32 6.0 8.0 0.00 0.00 0.00 91 1031.7
20201203124105 29 31 0.0 7.0 0.00 0.00 0.00 91 1031.8
20201203123540 29 42 1.0 7.0 0.00 0.00 0.00 91 1031.8
20201203123112 29 35 6.0 8.0 0.00 0.00 0.00 91 1031.8
20201203122602 29 32 0.0 8.0 0.00 0.00 0.00 91 1031.8
20201203122045 29 23 6.0 8.0 0.00 0.00 0.00 91 1031.7
20201203121615 29 24 3.0 8.0 0.00 0.00 0.00 91 1031.7
20201203121039 29 19 1.0 9.0 0.00 0.00 0.00 91 1031.6
20201203120542 29 38 3.0 9.0 0.00 0.00 0.00 91 1031.6
20201203120201 29 32 0.0 9.0 0.00 0.00 0.00 91 1031.6
20201203115540 29 27 1.0 9.0 0.00 0.00 0.00 91 1031.6
20201203115041 29 50 1.0 9.0 0.00 0.00 0.00 91 1031.7
20201203114620 29 42 6.0 9.0 0.00 0.00 0.00 91 1031.7
20201203114039 29 27 7.0 9.0 0.00 0.00 0.00 91 1031.6
20201203113537 29 26 6.0 8.0 0.00 0.00 0.00 91 1031.7
20201203113058 29 24 5.0 9.0 0.00 0.00 0.00 91 1031.8
20201203112537 29 31 4.0 8.0 0.00 0.00 0.00 91 1031.7
20201203112034 29 29 0.0 0.0 0.00 0.00 0.00 91 1031.6
20201203111630 29 28 0.0 6.0 0.00 0.00 0.00 91 1031.8
20201203111033 29 35 0.0 8.0 0.00 0.00 0.00 91 1031.9
20201203110533 29 34 6.0 8.0 0.00 0.00 0.00 91 1031.9
20201203110112 29 38 2.0 7.0 0.00 0.00 0.00 91 1031.9
20201203105532 29 37 4.0 6.0 0.00 0.00 0.00 91 1031.9
20201203105034 29 54 3.0 8.0 0.00 0.00 0.00 91 1032.0
20201203104607 29 59 2.0 8.0 0.00 0.00 0.00 91 1032.1
20201203104037 29 32 6.0 8.0 0.00 0.00 0.00 91 1032.0
20201203103535 29 30 0.0 7.0 0.00 0.00 0.00 91 1031.9
20201203103059 29 31 1.0 9.0 0.00 0.00 0.00 91 1032.0
20201203102531 29 41 4.0 9.0 0.00 0.00 0.00 91 1032.0
20201203102031 29 25 6.0 9.0 0.00 0.00 0.00 90 1032.0
20201203101547 29 28 4.0 9.0 0.00 0.00 0.00 90 1032.0
20201203101032 30 31 3.0 9.0 0.00 0.00 0.00 89 1032.1
20201203100536 30 15 0.0 9.0 0.00 0.00 0.00 89 1032.0
20201203100121 30 4 6.0 9.0 0.00 0.00 0.00 89 1032.0
20201203095525 30 32 6.0 9.0 0.00 0.00 0.00 88 1031.9
20201203095029 31 28 7.0 10.0 0.00 0.00 0.00 88 1031.8
20201203094529 31 34 0.0 10.0 0.00 0.00 0.00 88 1031.8
20201203094027 31 38 5.0 8.0 0.00 0.00 0.00 88 1031.8
20201203093538 31 38 1.0 10.0 0.00 0.00 0.00 89 1031.8
20201203093038 31 55 0.0 10.0 0.00 0.00 0.00 89 1031.8
20201203092524 31 44 2.0 9.0 0.00 0.00 0.00 89 1031.7
20201203092023 31 35 2.0 8.0 0.00 0.00 0.00 90 1031.7
20201203091551 31 40 0.0 11.0 0.00 0.00 0.00 90 1031.7
20201203091021 31 29 6.0 11.0 0.00 0.00 0.00 89 1031.6
20201203090520 31 27 6.0 11.0 0.00 0.00 0.00 89 1031.6
20201203090030 31 33 4.0 10.0 0.00 0.00 0.00 90 1031.6
20201203085528 31 46 5.0 10.0 0.00 0.00 0.00 89 1031.5
20201203085025 31 29 4.0 8.0 0.00 0.00 0.00 89 1031.6
20201203084519 31 34 1.0 8.0 0.00 0.00 0.00 89 1031.5
20201203084035 31 53 2.0 9.0 0.00 0.00 0.00 89 1031.5
20201203083514 31 32 2.0 11.0 0.00 0.00 0.00 89 1031.6
20201203083023 31 17 7.0 11.0 0.00 0.00 0.00 89 1031.6
20201203082515 31 29 2.0 11.0 0.00 0.00 0.00 89 1031.6
20201203082020 31 38 0.0 7.0 0.00 0.00 0.00 89 1031.7
20201203081518 31 36 0.0 8.0 0.00 0.00 0.00 89 1031.6
20201203081019 31 26 3.0 8.0 0.00 0.00 0.00 89 1031.5
20201203080524 31 51 1.0 8.0 0.00 0.00 0.00 89 1031.6
20201203080050 31 50 1.0 8.0 0.00 0.00 0.00 89 1031.6
20201203075521 31 50 3.0 8.0 0.00 0.00 0.00 88 1031.6
20201203075023 31 34 0.0 7.0 0.00 0.00 0.00 88 1031.7
20201203074516 32 47 1.0 7.0 0.00 0.00 0.00 88 1031.5
20201203074013 32 44 2.0 8.0 0.00 0.00 0.00 88 1031.5
20201203073510 32 62 2.0 9.0 0.00 0.00 0.00 88 1031.6
20201203073016 32 42 0.0 9.0 0.00 0.00 0.00 88 1031.7
20201203072509 32 38 0.0 13.0 0.00 0.00 0.00 89 1031.6
20201203072019 32 40 7.0 13.0 0.00 0.00 0.00 89 1031.6
20201203071601 32 22 4.0 11.0 0.00 0.00 0.00 89 1031.6
20201203071008 31 38 4.0 12.0 0.00 0.00 0.00 89 1031.7
20201203070515 31 30 6.0 11.0 0.00 0.00 0.00 89 1031.6
20201203070010 31 40 2.0 11.0 0.00 0.00 0.00 88 1031.6
20201203065509 32 29 0.0 8.0 0.00 0.00 0.00 88 1031.6
20201203065010 32 31 5.0 9.0 0.00 0.00 0.00 88 1031.7
20201203064509 32 32 4.0 9.0 0.00 0.00 0.00 88 1031.9
20201203064013 32 29 2.0 9.0 0.00 0.00 0.00 88 1032.0
20201203063603 32 29 3.0 8.0 0.00 0.00 0.00 87 1032.1
20201203063323 32 27 0.0 8.0 0.00 0.00 0.00 87 1032.1
20201203062608 33 33 0.0 11.0 0.00 0.00 0.00 87 1032.1
20201203062104 33 44 2.0 11.0 0.00 0.00 0.00 87 1032.1
20201203061643 33 31 3.0 12.0 0.00 0.00 0.00 88 1032.1
20201203061104 33 25 1.0 13.0 0.00 0.00 0.00 88 1032.1
20201203060603 33 31 6.0 12.0 0.00 0.00 0.00 88 1032.1
20201203055601 32 21 3.0 9.0 0.00 0.00 0.00 89 1032.1
20201203055059 32 39 1.0 12.0 0.00 0.00 0.00 90 1032.1
20201203054643 32 18 3.0 12.0 0.00 0.00 0.00 90 1032.0
20201203054111 31 32 0.0 10.0 0.00 0.00 0.00 90 1032.0
20201203053605 31 24 0.0 10.0 0.00 0.00 0.00 90 1032.1
20201203053207 31 23 0.0 9.0 0.00 0.00 0.00 90 1032.1
20201203052605 31 28 2.0 9.0 0.00 0.00 0.00 90 1032.1
20201203052105 31 16 6.0 9.0 0.00 0.00 0.00 89 1032.1
20201203051644 31 25 7.0 9.0 0.00 0.00 0.00 89 1032.1
20201203051102 31 6 6.0 11.0 0.00 0.00 0.00 89 1032.1
20201203050602 32 24 3.0 11.0 0.00 0.00 0.00 88 1032.0
20201203050225 32 29 1.0 11.0 0.00 0.00 0.00 88 1032.1
20201203045558 32 27 0.0 11.0 0.00 0.00 0.00 88 1032.0
20201203045106 32 23 1.0 10.0 0.00 0.00 0.00 87 1032.1
20201203044647 32 30 4.0 10.0 0.00 0.00 0.00 87 1032.0
20201203044101 32 23 0.0 2.0 0.00 0.00 0.00 86 1032.0
20201203044042 32 15 0.0 2.0 0.00 0.00 0.00 86 1032.0
20201203043606 33 22 0.0 7.0 0.00 0.00 0.00 86 1032.0
20201203043209 33 346 0.0 10.0 0.00 0.00 0.00 85 1031.9
20201203042603 33 21 4.0 10.0 0.00 0.00 0.00 85 1031.9
20201203042059 34 12 6.0 8.0 0.00 0.00 0.00 84 1031.9
20201203041620 34 24 0.0 10.0 0.00 0.00 0.00 83 1031.9
20201203041100 35 21 0.0 6.0 0.00 0.00 0.00 83 1032.0
20201203040558 35 175 0.0 7.0 0.00 0.00 0.00 83 1031.9
20201203040144 35 358 2.0 11.0 0.00 0.00 0.00 82 1031.9
20201203035600 35 13 0.0 11.0 0.00 0.00 0.00 81 1031.9
20201203035057 35 24 0.0 1.0 0.00 0.00 0.00 81 1031.9
20201203034738 36 312 0.0 9.0 0.00 0.00 0.00 80 1031.8
20201203034056 36 24 1.0 9.0 0.00 0.00 0.00 80 1031.7
20201203033600 36 3 2.0 7.0 0.00 0.00 0.00 80 1031.7
20201203033237 36 43 0.0 9.0 0.00 0.00 0.00 80 1031.8
20201203032607 36 15 2.0 12.0 0.00 0.00 0.00 80 1031.6
20201203032101 36 27 3.0 12.0 0.00 0.00 0.00 80 1031.6
20201203031654 36 34 4.0 10.0 0.00 0.00 0.00 80 1031.5
20201203031055 36 37 1.0 7.0 0.00 0.00 0.00 81 1031.4
20201203030558 36 21 0.0 8.0 0.00 0.00 0.00 81 1031.4
20201203030258 36 17 1.0 7.0 0.00 0.00 0.00 81 1031.5
20201203025538 36 25 0.0 10.0 0.00 0.00 0.00 81 1031.4
20201203025031 35 36 5.0 11.0 0.00 0.00 0.00 82 1031.4
20201203024540 35 79 2.0 13.0 0.00 0.00 0.00 84 1031.5
20201203024038 34 25 0.0 7.0 0.00 0.00 0.00 84 1031.4
20201203023530 35 22 0.0 11.0 0.00 0.00 0.00 83 1031.4
20201203023135 35 14 0.0 11.0 0.00 0.00 0.00 82 1031.3
20201203022537 35 27 0.0 8.0 0.00 0.00 0.00 81 1031.3
20201203022029 36 354 3.0 9.0 0.00 0.00 0.00 80 1031.4
20201203021552 37 21 7.0 10.0 0.00 0.00 0.00 79 1031.4
20201203021031 37 40 5.0 11.0 0.00 0.00 0.00 77 1031.4
20201203020534 38 15 4.0 14.0 0.00 0.00 0.00 77 1031.4
20201203020116 38 50 0.0 14.0 0.00 0.00 0.00 76 1031.4
20201203015529 39 127 2.0 8.0 0.00 0.00 0.00 74 1031.4
20201203015032 39 84 0.0 9.0 0.00 0.00 0.00 74 1031.5
20201203014540 39 100 1.0 9.0 0.00 0.00 0.00 74 1031.5
20201203014043 39 98 0.0 9.0 0.00 0.00 0.00 75 1031.5
20201203013530 39 196 0.0 6.0 0.00 0.00 0.00 74 1031.4
20201203013107 39 107 1.0 6.0 0.00 0.00 0.00 74 1031.4
20201203012530 40 317 0.0 5.0 0.00 0.00 0.00 73 1031.5
20201203012029 40 13 1.0 5.0 0.00 0.00 0.00 72 1031.4
20201203011541 41 186 0.0 13.0 0.00 0.00 0.00 72 1031.4
20201203011059 41 143 4.0 13.0 0.00 0.00 0.00 71 1031.3